[[{"header":{"parameterUnit":"m.s-1","parameterCategory":2,"la1":30.2991,"la2":30.254,"lo1":-89.0895,"lo2":-89.0444,"dy":0.0017,"dx":0.0017,"nx":28,"ny":28,"refTime":"2025-05-14T21:00:00:Z","depth":"0","parameterNumber":2,"parameterNumberName":"U-component_of_CURRENTS"},"data":[0,0,0,0,0,0,0,0,0,0,0,0,0,0,0,0,0,0,0,0,0,0,0,0,0,0,0,0,0,0,0,0,0,0,0,0,0,0,0,0,0,0,0,0,0,0,0,0,0,0,0,0,0,0,0,0,0,0,-0.2538,-0.2539,0,-0.2543,-0.2543,-0.2542,-0.25,-0.2499,-0.2498,-0.2497,-0.2585,-0.2588,-0.2591,0,0,0,0,0,0,0,0,0,0,0,0,0,-0.2455,-0.2457,-0.2538,-0.2539,-0.2539,-0.2543,-0.2543,-0.2542,-0.25,-0.2499,-0.2498,-0.2497,-0.2584,-0.2588,-0.2591,0,0,0,0,0,0,0,0,0,0,0,0,0,-0.2475,-0.2457,-0.2538,-0.2521,-0.252,-0.2543,-0.2543,-0.2542,-0.25,-0.2499,-0.2498,-0.2496,-0.2583,-0.2587,-0.2592,-0.2645,0,0,-0.2606,-0.2608,0,0,0,0,0,0,0,0,-0.2474,-0.2478,-0.2523,-0.2523,-0.2521,-0.2523,-0.2546,-0.2582,-0.25,-0.2504,-0.2497,-0.2496,-0.2576,-0.2581,-0.2577,-0.2649,-0.2653,-0.2607,-0.2609,-0.2611,-0.2613,0,0,0,0,0,0,0,-0.2473,-0.2477,-0.2536,-0.2524,-0.2523,-0.2501,-0.2502,-0.2551,-0.2545,-0.2503,-0.2501,-0.2508,-0.2575,-0.2573,-0.258,-0.2655,-0.2606,-0.2611,-0.2613,-0.2615,-0.271,-0.271,0,0,0,0,0,0,-0.2484,-0.2476,-0.2536,-0.2537,-0.2499,-0.2504,-0.2505,-0.252,-0.2543,-0.2545,-0.2509,-0.2506,-0.2566,-0.2574,-0.2583,-0.2602,-0.2611,-0.2616,-0.2618,-0.271,-0.271,-0.271,0,0,0,0,0,0,-0.2482,-0.249,-0.2536,-0.2509,-0.2514,-0.2507,-0.2524,-0.2521,-0.2516,-0.2547,-0.255,-0.2507,-0.2565,-0.2576,-0.2603,-0.2607,-0.2618,-0.2622,-0.271,-0.271,-0.271,-0.267,0,0,0,0,0,0,-0.248,-0.2489,-0.2496,-0.251,-0.2516,-0.2548,-0.2526,-0.2522,-0.2524,-0.252,-0.2547,-0.2553,-0.2565,-0.2596,-0.2608,-0.2613,-0.2626,-0.2711,-0.271,-0.271,-0.2672,-0.2668,-0.2665,0,0,0,0,0,-0.2477,-0.2496,-0.2497,-0.2504,-0.2529,-0.2549,-0.255,-0.2537,-0.2526,-0.2527,-0.2529,-0.2552,-0.2601,-0.26,-0.2614,-0.2621,-0.2711,-0.271,-0.271,-0.2673,-0.2669,-0.2665,0,0,0,0,0,0,-0.2456,-0.2495,-0.2495,-0.2522,-0.2535,-0.2543,-0.2546,-0.2543,-0.2544,-0.254,-0.2558,-0.2565,-0.2581,-0.2613,-0.2611,-0.2644,-0.2658,-0.266,-0.2625,-0.2622,-0.2619,-0.2639,-0.263,0,0,0,0,0,-0.2461,-0.2483,-0.2511,-0.2527,-0.254,-0.2544,-0.2548,-0.2545,-0.2554,-0.2552,-0.2565,-0.2581,-0.2593,-0.2615,-0.263,-0.267,-0.2674,-0.268,-0.2677,-0.2674,-0.2699,-0.2681,-0.2679,-0.2707,-0.2707,-0.2707,0,0,-0.2454,-0.2478,-0.2488,-0.2524,-0.2531,-0.2555,-0.2542,-0.2556,-0.2565,-0.2568,-0.2578,-0.2572,-0.2597,-0.2611,-0.2625,-0.2641,-0.2663,-0.2673,-0.2671,-0.2698,-0.268,-0.2677,-0.2675,-0.2707,-0.2707,-0.2707,0,0,-0.2456,-0.2479,-0.25,-0.2521,-0.2546,-0.2556,-0.2564,-0.2577,-0.2572,-0.259,-0.2574,-0.2569,-0.2611,-0.2609,-0.262,-0.2622,-0.2636,-0.2627,-0.2647,-0.2627,-0.2625,-0.2623,-0.2599,-0.2595,-0.2638,-0.2638,-0.2638,0,-0.2443,-0.2478,-0.2505,-0.2534,-0.2548,-0.2562,-0.2582,-0.2593,-0.2604,-0.2603,-0.2592,-0.2597,-0.261,-0.2621,-0.2609,-0.2616,-0.2607,-0.2655,-0.2623,-0.2621,-0.262,-0.2596,-0.2592,-0.2636,-0.2636,-0.2637,-0.2637,0,-0.2466,-0.2492,-0.2507,-0.255,-0.2571,-0.259,-0.2619,-0.2627,-0.2623,-0.2623,-0.2619,-0.2612,-0.2617,-0.261,-0.2618,-0.2615,-0.2609,-0.2606,-0.263,-0.2614,-0.259,-0.2587,-0.2633,-0.2634,-0.2635,-0.2635,0,0,-0.243,-0.2507,-0.2508,-0.2526,-0.258,-0.2594,-0.2628,-0.2649,-0.2655,-0.2653,-0.265,-0.2647,-0.2629,-0.2641,-0.2631,-0.2625,-0.2588,-0.2621,-0.2621,-0.2595,-0.2541,-0.2393,-0.2376,-0.2575,-0.2575,-0.2575,-0.2518,0,-0.2428,-0.2475,-0.2521,-0.2553,-0.2576,-0.2613,-0.2641,-0.2663,-0.2669,-0.2672,-0.2662,-0.2656,-0.2647,-0.2636,-0.2626,-0.2604,-0.2584,-0.2604,-0.2565,-0.2564,-0.2433,-0.2369,-0.2262,-0.219,-0.2515,-0.2514,-0.2514,0,-0.2421,-0.2456,-0.2489,-0.2548,-0.2563,-0.2586,-0.2618,-0.2647,-0.2673,-0.2679,-0.2677,-0.267,-0.2666,-0.265,-0.2612,-0.2625,-0.2587,-0.2564,-0.2561,-0.2445,-0.2411,-0.2265,-0.2173,-0.2169,-0.251,-0.251,-0.251,0,-0.2354,-0.2426,-0.2444,-0.2466,-0.2542,-0.2555,-0.2589,-0.2629,-0.2653,-0.2675,-0.2685,-0.2678,-0.2666,-0.2635,-0.2576,-0.2601,-0.2515,-0.254,-0.237,-0.236,-0.2274,-0.2255,-0.2175,-0.2501,-0.2501,-0.2502,-0.2502,0,-0.2321,-0.2332,-0.2411,-0.2419,-0.2435,-0.2509,-0.2528,-0.2562,-0.262,-0.263,-0.2672,-0.2651,-0.2663,-0.2612,-0.2571,-0.2435,-0.25,-0.2361,-0.2327,-0.2252,-0.2232,-0.2231,-0.2283,-0.2499,-0.25,-0.25,-0.2501,0,-0.2227,-0.2287,-0.2305,-0.238,-0.2399,-0.2401,-0.249,-0.2507,-0.2581,-0.2595,-0.2605,-0.2634,-0.2548,-0.252,-0.245,-0.24,-0.2256,-0.2236,-0.2136,-0.209,-0.1929,-0.1983,-0.1911,-0.1857,-0.2063,-0.2058,-0.2055,0,-0.2179,-0.218,-0.2242,-0.2243,-0.2269,-0.2306,-0.2332,-0.2448,-0.2489,-0.2547,-0.2544,-0.2495,-0.2389,-0.2236,-0.2135,-0.201,-0.2063,-0.1871,-0.1894,-0.1882,-0.1921,-0.1985,-0.1953,-0.1771,-0.1766,-0.1761,-0.1758,0,-0.207,-0.209,-0.21,-0.2104,-0.2126,-0.216,-0.2222,-0.225,-0.2372,-0.2365,-0.2302,-0.2216,-0.2103,-0.1901,-0.1775,-0.1704,-0.1833,-0.177,-0.1795,-0.1704,-0.1737,-0.168,-0.186,-0.1717,-0.1722,-0.1724,-0.1727,-0.1728,-0.1962,-0.1936,-0.1944,-0.1931,-0.1953,-0.1951,-0.1905,-0.1972,-0.1948,-0.1864,-0.1969,-0.1754,-0.1756,-0.1528,-0.1459,-0.1368,-0.1484,-0.1371,-0.1444,-0.1516,-0.1436,-0.1502,-0.1291,-0.1292,-0.1294,-0.1295,-0.1296,0,-0.1815,-0.1794,-0.1772,-0.1738,-0.1678,-0.1756,-0.1772,-0.1684,-0.1532,-0.1487,-0.1364,-0.1269,-0.1149,-0.1172,-0.1146,-0.1095,-0.1122,-0.1106,-0.1219,-0.1205,-0.1279,-0.1234,-0.0954,-0.0954,-0.0954,-0.0954,-0.0954,-0.0954,-0.1734,-0.1653,-0.1636,-0.1461,-0.1423,-0.1285,-0.1232,-0.1107,-0.1034,-0.0786,-0.0668,-0.0648,-0.0874,-0.1095,-0.1089,-0.1036,-0.1076,-0.1026,-0.1089,-0.12,-0.1233,-0.1265,-0.1232,-0.0956,-0.0956,-0.096,-0.096,-0.096]},{"header":{"parameterUnit":"m.s-1","parameterCategory":2,"la1":30.2991,"la2":30.254,"lo1":-89.0895,"lo2":-89.0444,"dy":0.0017,"dx":0.0017,"nx":28,"ny":28,"refTime":"2025-05-14T21:00:00:Z","depth":"0","parameterNumber":3,"parameterNumberName":"V-component_of_CURRENTS"},"data":[0,0,0,0,0,0,0,0,0,0,0,0,0,0,0,0,0,0,0,0,0,0,0,0,0,0,0,0,0,0,0,0,0,0,0,0,0,0,0,0,0,0,0,0,0,0,0,0,0,0,0,0,0,0,0,0,0,0,-0.0192,-0.0192,0,-0.0114,-0.0113,-0.0112,-0.0051,-0.0051,-0.005,-0.005,0.0262,0.027,0.0278,0,0,0,0,0,0,0,0,0,0,0,0,0,-0.0229,-0.0229,-0.0192,-0.0192,-0.0191,-0.0115,-0.0113,-0.0112,-0.0051,-0.0051,-0.005,-0.0049,0.026,0.0269,0.0278,0,0,0,0,0,0,0,0,0,0,0,0,0,-0.0188,-0.0229,-0.0193,-0.0152,-0.0147,-0.0115,-0.0113,-0.0112,-0.0051,-0.0051,-0.005,-0.0049,0.0257,0.0268,0.028,0.0336,0,0,0.0315,0.0321,0,0,0,0,0,0,0,0,-0.019,-0.0186,-0.0159,-0.0154,-0.0149,-0.0092,-0.0012,0.0049,-0.0052,-0.0087,-0.005,-0.0049,0.0165,0.0184,0.0194,0.0351,0.0364,0.0316,0.0324,0.0329,0.0332,0,0,0,0,0,0,0,-0.0193,-0.0189,-0.0161,-0.0158,-0.0152,-0.0117,-0.011,-0.0001,0.0038,-0.0084,-0.0079,-0.0072,0.0169,0.0183,0.0203,0.0369,0.0316,0.0327,0.0334,0.0338,0.0585,0.0584,0,0,0,0,0,0,-0.0208,-0.0192,-0.0163,-0.0159,-0.0169,-0.0117,-0.011,-0.0111,0.0032,0.0052,-0.0073,-0.007,0.0162,0.0189,0.0214,0.0271,0.0329,0.034,0.0346,0.0585,0.0584,0.0584,0,0,0,0,0,0,-0.021,-0.0207,-0.0166,-0.0173,-0.0166,-0.0118,-0.0119,-0.011,-0.0094,0.0038,0.0063,-0.0067,0.0164,0.0198,0.0278,0.0285,0.0345,0.0355,0.0586,0.0585,0.0584,0.0398,0,0,0,0,0,0,-0.0211,-0.0208,-0.0215,-0.0175,-0.0166,-0.0153,-0.0119,-0.0109,-0.0091,-0.0086,0.0052,0.0081,0.0167,0.0259,0.0289,0.0302,0.0365,0.0586,0.0585,0.0584,0.0405,0.0391,0.0379,0,0,0,0,0,-0.0213,-0.0232,-0.0216,-0.0212,-0.0177,-0.0154,-0.0146,-0.0108,-0.0092,-0.009,-0.002,0.0077,0.0276,0.0267,0.0303,0.0319,0.0587,0.0586,0.0584,0.041,0.0394,0.0379,0,0,0,0,0,0,-0.0254,-0.0226,-0.0208,-0.0218,-0.0189,-0.0144,-0.0142,-0.0115,-0.0063,-0.0054,0.0064,0.0098,0.0168,0.0269,0.0256,0.0387,0.0452,0.0458,0.0308,0.0293,0.0281,0.028,0.0374,0,0,0,0,0,-0.0267,-0.0272,-0.0234,-0.0242,-0.0232,-0.0188,-0.0174,-0.0148,-0.0098,-0.0076,0.0014,0.0113,0.0191,0.0257,0.0343,0.0424,0.0511,0.0462,0.0448,0.0437,0.046,0.0534,0.0529,0.058,0.058,0.058,0,0,-0.0284,-0.0271,-0.0272,-0.025,-0.0226,-0.022,-0.0178,-0.0165,-0.0153,-0.0043,0.0,0.0069,0.0196,0.0259,0.0306,0.035,0.0467,0.0435,0.0424,0.0455,0.0532,0.0527,0.0523,0.058,0.058,0.058,0,0,-0.0329,-0.031,-0.033,-0.0309,-0.0281,-0.025,-0.025,-0.0207,-0.0181,-0.0136,-0.007,-0.0012,0.0134,0.0201,0.0261,0.0242,0.038,0.0285,0.0245,0.0313,0.0309,0.0307,0.0397,0.0405,0.0297,0.0297,0.0297,0,-0.0351,-0.0369,-0.0331,-0.0341,-0.0328,-0.0269,-0.028,-0.0246,-0.0183,-0.0156,-0.0136,0.0018,0.0106,0.0185,0.0165,0.0215,0.0286,0.0282,0.0294,0.0294,0.0295,0.0388,0.0399,0.0288,0.0289,0.029,0.0291,0,-0.0407,-0.0414,-0.0424,-0.0414,-0.0394,-0.0394,-0.0341,-0.0316,-0.0277,-0.0232,-0.0162,-0.0073,0.0027,0.0053,0.0107,0.0163,0.022,0.0245,0.0322,0.0277,0.038,0.0394,0.0275,0.0278,0.0281,0.0283,0,0,-0.0471,-0.0468,-0.0469,-0.0475,-0.0432,-0.0424,-0.0399,-0.0356,-0.033,-0.0269,-0.0229,-0.0137,-0.0088,-0.0018,0.0052,0.0115,0.0155,0.018,0.0188,0.0252,0.0329,0.039,0.0413,0.0175,0.0177,0.0178,0.0392,0,-0.0525,-0.0572,-0.0541,-0.0562,-0.0577,-0.0508,-0.0484,-0.043,-0.0367,-0.0312,-0.0221,-0.0152,-0.0111,-0.007,-0.0014,0.0121,0.0188,0.0097,0.0382,0.0391,0.0435,0.0429,0.0456,0.0651,0.0407,0.0409,0.0411,0,-0.0587,-0.061,-0.0654,-0.0636,-0.0632,-0.0627,-0.0569,-0.0537,-0.0435,-0.0383,-0.0304,-0.0215,-0.0113,-0.0085,0.0122,0.0064,0.0184,0.0284,0.0294,0.0436,0.0479,0.0663,0.0688,0.0835,0.0435,0.0433,0.0431,0,-0.0662,-0.068,-0.0722,-0.0718,-0.069,-0.0685,-0.0656,-0.0565,-0.0522,-0.042,-0.0359,-0.0241,-0.0137,-0.001,0.0204,0.0163,0.0452,0.0421,0.0595,0.0602,0.0731,0.0746,0.0923,0.0566,0.0565,0.0565,0.0564,0,-0.0734,-0.0761,-0.0765,-0.0788,-0.0816,-0.0758,-0.0747,-0.0693,-0.0593,-0.0489,-0.0403,-0.027,-0.0109,0.0084,0.0217,0.0479,0.047,0.061,0.0664,0.0667,0.0673,0.0893,0.0933,0.0573,0.0571,0.057,0.0568,0,-0.0808,-0.0813,-0.086,-0.0858,-0.0859,-0.0876,-0.082,-0.0797,-0.068,-0.0538,-0.0495,-0.027,-0.0006,0.0176,0.0447,0.0544,0.0854,0.0846,0.0852,0.09,0.1129,0.1156,0.1418,0.1527,0.1035,0.1038,0.104,0,-0.0849,-0.0888,-0.0929,-0.0961,-0.0966,-0.0975,-0.0972,-0.0872,-0.0803,-0.0486,-0.0408,-0.0118,0.0135,0.0519,0.0715,0.0956,0.1049,0.113,0.1035,0.1173,0.1244,0.1245,0.1316,0.1139,0.1142,0.1144,0.1146,0,-0.092,-0.0938,-0.0977,-0.1052,-0.1079,-0.1086,-0.1041,-0.097,-0.0755,-0.0542,-0.016,0.0078,0.0431,0.0734,0.0991,0.1122,0.1223,0.1186,0.1335,0.1353,0.1367,0.1486,0.0979,0.1168,0.1165,0.1164,0.1163,0.1162,-0.0958,-0.1009,-0.1062,-0.1124,-0.1159,-0.1119,-0.1053,-0.0898,-0.0662,-0.0201,0.0019,0.0472,0.0756,0.111,0.1257,0.1506,0.144,0.157,0.1601,0.1598,0.1673,0.1221,0.1453,0.1453,0.1452,0.1452,0.1451,0,-0.099,-0.1045,-0.1121,-0.1169,-0.1192,-0.1191,-0.1044,-0.0878,-0.0499,-0.0049,0.0382,0.0917,0.1231,0.1455,0.1736,0.1902,0.1916,0.1994,0.2002,0.2062,0.1686,0.166,0.194,0.194,0.194,0.194,0.194,0.194,-0.1007,-0.1086,-0.1126,-0.1167,-0.1185,-0.1098,-0.0968,-0.0653,-0.0312,0.0378,0.0829,0.1161,0.1438,0.1908,0.2238,0.2276,0.244,0.2411,0.2523,0.2243,0.2204,0.2168,0.2155,0.2535,0.2536,0.2887,0.2891,0.2893]}],[{"header":{"parameterUnit":"m.s-1","parameterCategory":2,"la1":30.2991,"la2":30.254,"lo1":-89.0895,"lo2":-89.0444,"dy":0.0017,"dx":0.0017,"nx":28,"ny":28,"refTime":"2025-05-14T21:00:00:Z","depth":"2","parameterNumber":2,"parameterNumberName":"U-component_of_CURRENTS"},"data":[0,0,0,0,0,0,0,0,0,0,0,0,0,0,0,0,0,0,0,0,0,0,0,0,0,0,0,0,0,0,0,0,0,0,0,0,0,0,0,0,0,0,0,0,0,0,0,0,0,0,0,0,0,0,0,0,0,0,-0.2454,-0.2454,0,-0.2474,-0.2474,-0.2474,-0.2444,-0.2443,-0.2443,-0.2442,-0.2511,-0.2514,-0.2516,0,0,0,0,0,0,0,0,0,0,0,0,0,-0.2368,-0.2369,-0.2454,-0.2454,-0.2455,-0.2474,-0.2474,-0.2474,-0.2444,-0.2443,-0.2442,-0.2442,-0.251,-0.2513,-0.2516,0,0,0,0,0,0,0,0,0,0,0,0,0,-0.2395,-0.237,-0.2454,-0.2445,-0.2444,-0.2474,-0.2474,-0.2474,-0.2444,-0.2443,-0.2442,-0.2441,-0.2509,-0.2513,-0.2517,-0.2563,0,0,-0.2529,-0.253,0,0,0,0,0,0,0,0,-0.2394,-0.2398,-0.2446,-0.2446,-0.2445,-0.2458,-0.2469,-0.2507,-0.2445,-0.2441,-0.2442,-0.2441,-0.2501,-0.2506,-0.2506,-0.2566,-0.2569,-0.2529,-0.2531,-0.2533,-0.2534,0,0,0,0,0,0,0,-0.2392,-0.2397,-0.2459,-0.2446,-0.2446,-0.2433,-0.2435,-0.2476,-0.2475,-0.2441,-0.244,-0.2448,-0.2501,-0.2503,-0.2508,-0.257,-0.2529,-0.2532,-0.2534,-0.2536,-0.2603,-0.2603,0,0,0,0,0,0,-0.2399,-0.2396,-0.2458,-0.246,-0.242,-0.2436,-0.2438,-0.2453,-0.2474,-0.2477,-0.2449,-0.2446,-0.2497,-0.2504,-0.2511,-0.2531,-0.2533,-0.2536,-0.2539,-0.2604,-0.2603,-0.2602,0,0,0,0,0,0,-0.2397,-0.2405,-0.2457,-0.243,-0.2436,-0.2439,-0.2455,-0.2454,-0.2455,-0.248,-0.2482,-0.2451,-0.2496,-0.2505,-0.2524,-0.2535,-0.2538,-0.2542,-0.2604,-0.2603,-0.2603,-0.2596,0,0,0,0,0,0,-0.2395,-0.2404,-0.2411,-0.2431,-0.2438,-0.2475,-0.2456,-0.2455,-0.2463,-0.246,-0.2483,-0.2488,-0.2496,-0.2518,-0.2528,-0.254,-0.2545,-0.2605,-0.2604,-0.2603,-0.2597,-0.2595,-0.2594,0,0,0,0,0,-0.2391,-0.241,-0.2412,-0.2419,-0.245,-0.2476,-0.2479,-0.2474,-0.2464,-0.2469,-0.2467,-0.2487,-0.2518,-0.2521,-0.2532,-0.2547,-0.2605,-0.2604,-0.2603,-0.2598,-0.2596,-0.2594,0,0,0,0,0,0,-0.2372,-0.241,-0.2412,-0.244,-0.2457,-0.2472,-0.2479,-0.248,-0.2482,-0.2478,-0.249,-0.2495,-0.2511,-0.2529,-0.2531,-0.2558,-0.2563,-0.2564,-0.2555,-0.2553,-0.2552,-0.257,-0.2548,0,0,0,0,0,-0.2375,-0.2397,-0.2428,-0.2445,-0.246,-0.247,-0.2479,-0.2481,-0.249,-0.2489,-0.25,-0.2509,-0.2518,-0.2534,-0.2545,-0.2578,-0.2575,-0.2589,-0.2587,-0.2586,-0.2606,-0.2587,-0.2586,-0.2599,-0.2599,-0.2599,0,0,-0.237,-0.2394,-0.2404,-0.2442,-0.2454,-0.2482,-0.2471,-0.2492,-0.2506,-0.2501,-0.2515,-0.2509,-0.2521,-0.2535,-0.2546,-0.2554,-0.2577,-0.2585,-0.2584,-0.2605,-0.2586,-0.2585,-0.2584,-0.2598,-0.2598,-0.2598,0,0,-0.2375,-0.2396,-0.2419,-0.2443,-0.2473,-0.2487,-0.2496,-0.2517,-0.2516,-0.2535,-0.2518,-0.2514,-0.2546,-0.2542,-0.2549,-0.2553,-0.2562,-0.2556,-0.2579,-0.2559,-0.2559,-0.2558,-0.2536,-0.2533,-0.2564,-0.2564,-0.2564,0,-0.2364,-0.24,-0.2426,-0.2458,-0.2477,-0.2493,-0.2519,-0.2532,-0.2549,-0.2549,-0.2539,-0.2542,-0.255,-0.2559,-0.2551,-0.2553,-0.2541,-0.2587,-0.2558,-0.2558,-0.2557,-0.2535,-0.2532,-0.2563,-0.2563,-0.2563,-0.2564,0,-0.2391,-0.2419,-0.2436,-0.2482,-0.2507,-0.2531,-0.2563,-0.2576,-0.2576,-0.258,-0.258,-0.257,-0.2571,-0.2567,-0.2568,-0.2568,-0.2558,-0.2551,-0.2566,-0.2556,-0.2532,-0.2529,-0.2563,-0.2563,-0.2563,-0.2563,0,0,-0.2356,-0.2438,-0.244,-0.2463,-0.2521,-0.254,-0.2577,-0.2603,-0.2613,-0.2617,-0.2619,-0.2617,-0.26,-0.2605,-0.2593,-0.2585,-0.256,-0.2575,-0.2574,-0.2558,-0.2513,-0.2387,-0.2372,-0.2544,-0.2544,-0.2544,-0.2492,0,-0.236,-0.2415,-0.246,-0.2503,-0.2531,-0.257,-0.26,-0.2627,-0.2636,-0.2643,-0.2633,-0.2629,-0.262,-0.2609,-0.26,-0.2573,-0.2556,-0.2575,-0.2523,-0.2521,-0.2414,-0.2366,-0.22,-0.2129,-0.249,-0.2489,-0.2489,0,-0.2358,-0.2398,-0.2441,-0.2509,-0.2525,-0.2553,-0.2592,-0.2624,-0.2651,-0.2658,-0.2658,-0.2649,-0.2644,-0.2627,-0.2588,-0.26,-0.2563,-0.2538,-0.2535,-0.2425,-0.239,-0.22,-0.2111,-0.2484,-0.2485,-0.2485,-0.2485,0,-0.2296,-0.2378,-0.2405,-0.243,-0.2514,-0.2532,-0.257,-0.2611,-0.2636,-0.2659,-0.2667,-0.2661,-0.2648,-0.2616,-0.256,-0.2578,-0.2501,-0.2514,-0.2365,-0.2356,-0.221,-0.2187,-0.2478,-0.2478,-0.2478,-0.2478,-0.2478,0,-0.227,-0.2289,-0.2377,-0.239,-0.2418,-0.2494,-0.252,-0.2557,-0.2613,-0.2626,-0.2661,-0.2644,-0.2644,-0.2598,-0.2558,-0.2434,-0.249,-0.236,-0.2327,-0.2198,-0.2176,-0.2491,-0.2493,-0.2476,-0.2477,-0.2477,-0.2477,0,-0.2181,-0.2247,-0.2277,-0.2362,-0.2385,-0.2397,-0.2489,-0.2508,-0.2578,-0.2597,-0.2606,-0.2629,-0.255,-0.2521,-0.2452,-0.2405,-0.2317,-0.2257,-0.21,-0.2049,-0.2197,-0.2199,-0.2106,-0.2101,-0.2097,-0.2093,-0.209,0,-0.2137,-0.2145,-0.2223,-0.2232,-0.2264,-0.2312,-0.2341,-0.2455,-0.2488,-0.2559,-0.2552,-0.2512,-0.2417,-0.2274,-0.2166,-0.2045,-0.2157,-0.1864,-0.1866,-0.2177,-0.2156,-0.2165,-0.2173,-0.1672,-0.1666,-0.1661,-0.1657,0,-0.2036,-0.2061,-0.2083,-0.2104,-0.2134,-0.2177,-0.2239,-0.2269,-0.2391,-0.241,-0.2378,-0.2307,-0.2165,-0.1935,-0.18,-0.1727,-0.1874,-0.1755,-0.2104,-0.1785,-0.1761,-0.1743,-0.1766,-0.1612,-0.1616,-0.1619,-0.1622,-0.1624,-0.1934,-0.1918,-0.194,-0.1943,-0.198,-0.1994,-0.197,-0.2068,-0.2086,-0.21,-0.2132,-0.1967,-0.1911,-0.1564,-0.1453,-0.1378,-0.1513,-0.1489,-0.1508,-0.1532,-0.1483,-0.1452,-0.1236,-0.1239,-0.1241,-0.1242,-0.1244,0,-0.1796,-0.1786,-0.1779,-0.1773,-0.1743,-0.1813,-0.1854,-0.1839,-0.1803,-0.1851,-0.1793,-0.1494,-0.131,-0.1249,-0.104,-0.1006,-0.1037,-0.0991,-0.1045,-0.1088,-0.1127,-0.1062,-0.0702,-0.07,-0.0699,-0.0698,0,0,-0.1721,-0.1655,-0.1645,-0.1528,-0.1513,-0.143,-0.1405,-0.1437,-0.1461,-0.1368,-0.1267,-0.1325,-0.1244,-0.0995,-0.0926,-0.0786,-0.0952,-0.075,-0.1183,-0.1293,-0.1331,-0.14,-0.1345,0,0,0,0,0]},{"header":{"parameterUnit":"m.s-1","parameterCategory":2,"la1":30.2991,"la2":30.254,"lo1":-89.0895,"lo2":-89.0444,"dy":0.0017,"dx":0.0017,"nx":28,"ny":28,"refTime":"2025-05-14T21:00:00:Z","depth":"2","parameterNumber":3,"parameterNumberName":"V-component_of_CURRENTS"},"data":[0,0,0,0,0,0,0,0,0,0,0,0,0,0,0,0,0,0,0,0,0,0,0,0,0,0,0,0,0,0,0,0,0,0,0,0,0,0,0,0,0,0,0,0,0,0,0,0,0,0,0,0,0,0,0,0,0,0,-0.0295,-0.0295,0,-0.021,-0.0209,-0.0208,-0.0143,-0.0143,-0.0142,-0.0142,0.0072,0.0077,0.0082,0,0,0,0,0,0,0,0,0,0,0,0,0,-0.0337,-0.0337,-0.0295,-0.0294,-0.0293,-0.021,-0.0209,-0.0207,-0.0143,-0.0143,-0.0142,-0.0141,0.0071,0.0077,0.0083,0,0,0,0,0,0,0,0,0,0,0,0,0,-0.0291,-0.0337,-0.0296,-0.0252,-0.0247,-0.021,-0.0208,-0.0207,-0.0143,-0.0143,-0.0142,-0.0141,0.0068,0.0076,0.0084,0.0117,0,0,0.0108,0.0111,0,0,0,0,0,0,0,0,-0.0294,-0.029,-0.0259,-0.0255,-0.025,-0.0187,-0.0145,-0.0092,-0.0144,-0.0182,-0.0142,-0.0141,-0.0004,0.001,0.0024,0.0127,0.0136,0.0108,0.0113,0.0117,0.0119,0,0,0,0,0,0,0,-0.0297,-0.0293,-0.0261,-0.0258,-0.0252,-0.0214,-0.0207,-0.0135,-0.0095,-0.0179,-0.0174,-0.0166,0.0,0.0016,0.003,0.0139,0.0108,0.0115,0.012,0.0123,0.0279,0.0279,0,0,0,0,0,0,-0.0314,-0.0296,-0.0263,-0.0258,-0.0271,-0.0214,-0.0206,-0.0207,-0.0098,-0.0083,-0.0167,-0.0163,0.0002,0.0021,0.0038,0.0088,0.0117,0.0124,0.0128,0.028,0.0279,0.0279,0,0,0,0,0,0,-0.0315,-0.0312,-0.0267,-0.0275,-0.0267,-0.0215,-0.0216,-0.0206,-0.0187,-0.0091,-0.0072,-0.0158,0.0004,0.0027,0.0088,0.0097,0.0127,0.0135,0.0281,0.028,0.0279,0.0186,0,0,0,0,0,0,-0.0317,-0.0314,-0.032,-0.0277,-0.0267,-0.0249,-0.0216,-0.0205,-0.0184,-0.0179,-0.0077,-0.0057,0.0006,0.0076,0.0096,0.0108,0.0141,0.0281,0.028,0.0279,0.019,0.0182,0.0175,0,0,0,0,0,-0.0319,-0.0336,-0.0321,-0.0316,-0.0278,-0.0249,-0.0241,-0.02,-0.0185,-0.018,-0.0121,-0.006,0.0084,0.0082,0.0106,0.012,0.0282,0.0281,0.0279,0.0193,0.0183,0.0175,0,0,0,0,0,0,-0.0358,-0.033,-0.0312,-0.032,-0.0287,-0.0239,-0.0234,-0.0206,-0.0159,-0.0152,-0.0064,-0.004,0.0016,0.0075,0.007,0.0159,0.0193,0.0196,0.0119,0.0111,0.0104,0.0098,0.0147,0,0,0,0,0,-0.0371,-0.0375,-0.0335,-0.0341,-0.0329,-0.0282,-0.0266,-0.0239,-0.0193,-0.0172,-0.0104,-0.0033,0.0028,0.0073,0.0135,0.0189,0.0248,0.0212,0.0205,0.0198,0.0207,0.0276,0.0276,0.0275,0.0275,0.0275,0,0,-0.0387,-0.0372,-0.0374,-0.0349,-0.0322,-0.031,-0.0271,-0.0253,-0.0236,-0.0153,-0.0111,-0.0054,0.0034,0.0085,0.0117,0.014,0.0228,0.0197,0.0191,0.0204,0.0274,0.0275,0.0275,0.0274,0.0274,0.0274,0,0,-0.0427,-0.0409,-0.0426,-0.0402,-0.0369,-0.0337,-0.0335,-0.0288,-0.0259,-0.0217,-0.0159,-0.0104,-0.0005,0.0055,0.0099,0.0093,0.0181,0.0113,0.0087,0.0152,0.0153,0.0154,0.0222,0.023,0.0117,0.0117,0.0117,0,-0.0447,-0.0461,-0.0425,-0.0428,-0.0411,-0.0354,-0.0357,-0.032,-0.0258,-0.023,-0.0214,-0.0086,-0.0018,0.0056,0.0047,0.008,0.013,0.0111,0.0143,0.0146,0.0149,0.0218,0.0229,0.0113,0.0113,0.0114,0.0114,0,-0.0495,-0.0498,-0.0505,-0.0488,-0.0463,-0.0458,-0.0401,-0.0373,-0.0333,-0.0287,-0.0217,-0.0138,-0.0058,-0.0033,0.0009,0.0067,0.0098,0.0118,0.0162,0.0143,0.0218,0.023,0.0106,0.0108,0.0109,0.011,0,0,-0.0557,-0.0544,-0.0544,-0.0545,-0.0495,-0.0482,-0.0448,-0.0398,-0.0369,-0.0306,-0.0263,-0.0172,-0.0128,-0.0076,-0.0016,0.0043,0.01,0.0084,0.0089,0.0148,0.0249,0.0276,0.0293,0.0122,0.0124,0.0125,0.0289,0,-0.0604,-0.0638,-0.0604,-0.0612,-0.062,-0.0548,-0.0517,-0.0458,-0.0395,-0.0338,-0.0248,-0.0184,-0.0143,-0.0108,-0.0047,0.0066,0.013,0.0054,0.0263,0.0269,0.0293,0.0308,0.0246,0.0387,0.0302,0.0304,0.0305,0,-0.0659,-0.0673,-0.0705,-0.0675,-0.0669,-0.0657,-0.0591,-0.0553,-0.0449,-0.0398,-0.0318,-0.0239,-0.014,-0.0113,0.0074,0.0023,0.0127,0.0212,0.0221,0.0292,0.0321,0.0396,0.0415,0.0328,0.0326,0.0324,0.0323,0,-0.0732,-0.0736,-0.0768,-0.0759,-0.0719,-0.0708,-0.0674,-0.0579,-0.0536,-0.0435,-0.0384,-0.0263,-0.0177,-0.0055,0.0132,0.01,0.0347,0.0327,0.0456,0.0459,0.0474,0.0476,0.0461,0.0461,0.046,0.046,0.0459,0,-0.0797,-0.0816,-0.081,-0.0827,-0.0846,-0.078,-0.0765,-0.0706,-0.0608,-0.0525,-0.0427,-0.0324,-0.0157,0.0011,0.0138,0.0353,0.036,0.0466,0.0508,0.0438,0.0435,0.0435,0.043,0.0466,0.0465,0.0463,0.0462,0,-0.087,-0.0868,-0.0904,-0.089,-0.0888,-0.0901,-0.0841,-0.0819,-0.0706,-0.0594,-0.0558,-0.0355,-0.0128,0.0057,0.0302,0.0387,0.0569,0.0649,0.056,0.0587,0.0628,0.0616,0.0775,0.0777,0.0779,0.0781,0.0782,0,-0.091,-0.0943,-0.0972,-0.1001,-0.1002,-0.1004,-0.1,-0.0897,-0.0843,-0.0582,-0.0528,-0.0276,-0.0078,0.0267,0.0462,0.0689,0.0692,0.0757,0.0676,0.0638,0.0663,0.0647,0.0633,0.0661,0.0662,0.0662,0.0662,0,-0.0979,-0.0993,-0.1026,-0.1098,-0.1123,-0.1134,-0.1098,-0.1053,-0.0866,-0.0715,-0.044,-0.0255,0.009,0.0323,0.0594,0.0712,0.0697,0.0768,0.0786,0.0581,0.0542,0.0562,0.055,0.0665,0.0664,0.0664,0.0664,0.0664,-0.1019,-0.1067,-0.1117,-0.1177,-0.1218,-0.1219,-0.1199,-0.1101,-0.0953,-0.0665,-0.042,-0.013,0.0061,0.0417,0.0624,0.0795,0.0789,0.0787,0.0782,0.0777,0.0724,0.069,0.0831,0.0832,0.0833,0.0833,0.0834,0,-0.1055,-0.111,-0.1184,-0.1254,-0.1315,-0.1295,-0.1232,-0.1175,-0.0979,-0.0675,-0.038,-0.0095,0.0159,0.0372,0.0638,0.0793,0.0759,0.081,0.0718,0.0714,0.0712,0.0651,0.0742,0.0742,0.0743,0.0743,0,0,-0.1074,-0.1153,-0.1195,-0.1308,-0.135,-0.1365,-0.1307,-0.1192,-0.1,-0.0658,-0.0409,-0.0152,0.0116,0.0263,0.047,0.0625,0.0627,0.0634,0.0687,0.055,0.0546,0.0676,0.0577,0,0,0,0,0]}],[{"header":{"parameterUnit":"m.s-1","parameterCategory":2,"la1":30.2991,"la2":30.254,"lo1":-89.0895,"lo2":-89.0444,"dy":0.0017,"dx":0.0017,"nx":28,"ny":28,"refTime":"2025-05-14T21:00:00:Z","depth":"4","parameterNumber":2,"parameterNumberName":"U-component_of_CURRENTS"},"data":[0,0,0,0,0,0,0,0,0,0,0,0,0,0,0,0,0,0,0,0,0,0,0,0,0,0,0,0,0,0,0,0,0,0,0,0,0,0,0,0,0,0,0,0,0,0,0,0,0,0,0,0,0,0,0,0,0,0,-0.1735,-0.1736,0,-0.184,-0.1841,-0.1842,-0.1899,-0.19,-0.19,-0.19,-0.1918,-0.1919,-0.1919,0,0,0,0,0,0,0,0,0,0,0,0,0,-0.1607,-0.1609,-0.1735,-0.1736,-0.1737,-0.184,-0.1841,-0.1843,-0.1899,-0.19,-0.19,-0.19,-0.1918,-0.1919,-0.1919,0,0,0,0,0,0,0,0,0,0,0,0,0,-0.1682,-0.161,-0.1734,-0.1779,-0.1784,-0.184,-0.1841,-0.1843,-0.1899,-0.19,-0.19,-0.19,-0.1918,-0.1918,-0.1919,-0.1915,0,0,-0.192,-0.192,0,0,0,0,0,0,0,0,-0.1677,-0.1686,-0.1771,-0.1776,-0.1781,-0.1858,-0.1803,-0.1863,-0.1899,-0.1855,-0.19,-0.19,-0.189,-0.1893,-0.1912,-0.1916,-0.1917,-0.192,-0.1921,-0.1921,-0.1921,0,0,0,0,0,0,0,-0.1672,-0.1682,-0.1776,-0.1772,-0.1779,-0.1802,-0.1812,-0.1815,-0.1867,-0.1859,-0.1863,-0.1876,-0.1892,-0.1912,-0.1913,-0.1917,-0.192,-0.1921,-0.1921,-0.1921,-0.1962,-0.1963,0,0,0,0,0,0,-0.1659,-0.1677,-0.1772,-0.1779,-0.173,-0.1804,-0.1816,-0.1832,-0.1869,-0.1876,-0.1876,-0.1878,-0.1911,-0.1912,-0.1913,-0.1974,-0.1921,-0.1921,-0.1921,-0.1961,-0.1962,-0.1963,0,0,0,0,0,0,-0.1656,-0.1667,-0.1768,-0.1731,-0.1745,-0.1806,-0.1824,-0.1834,-0.1884,-0.1883,-0.1888,-0.1918,-0.1911,-0.1913,-0.1949,-0.1973,-0.1921,-0.1922,-0.196,-0.1962,-0.1963,-0.2055,0,0,0,0,0,0,-0.1652,-0.1665,-0.1688,-0.173,-0.1747,-0.182,-0.1824,-0.1836,-0.189,-0.1895,-0.192,-0.1921,-0.1912,-0.1949,-0.1949,-0.1972,-0.1922,-0.1959,-0.1961,-0.1962,-0.2051,-0.2059,-0.2066,0,0,0,0,0,-0.1647,-0.1676,-0.1688,-0.1701,-0.1771,-0.1821,-0.1833,-0.1875,-0.1892,-0.192,-0.1942,-0.1922,-0.1958,-0.1951,-0.1951,-0.1975,-0.1958,-0.196,-0.1962,-0.2047,-0.2057,-0.2066,0,0,0,0,0,0,-0.1635,-0.1685,-0.17,-0.1743,-0.1787,-0.1832,-0.1869,-0.1894,-0.1937,-0.195,-0.1945,-0.1948,-0.1985,-0.1965,-0.1957,-0.1987,-0.1949,-0.1952,-0.2014,-0.2023,-0.2031,-0.2027,-0.1922,0,0,0,0,0,-0.1641,-0.1675,-0.1721,-0.1758,-0.1783,-0.1831,-0.1863,-0.1893,-0.193,-0.1953,-0.197,-0.1979,-0.1988,-0.1997,-0.2002,-0.2025,-0.199,-0.2034,-0.2042,-0.2049,-0.2045,-0.203,-0.2036,-0.1969,-0.1969,-0.1969,0,0,-0.1647,-0.1678,-0.1699,-0.1758,-0.1797,-0.1846,-0.1853,-0.1913,-0.1955,-0.1943,-0.2011,-0.2015,-0.2002,-0.2033,-0.2045,-0.2023,-0.2048,-0.2051,-0.2058,-0.2049,-0.2032,-0.2039,-0.2045,-0.1971,-0.197,-0.197,0,0,-0.167,-0.1706,-0.1743,-0.1784,-0.1849,-0.1878,-0.1901,-0.1964,-0.1997,-0.2053,-0.2053,-0.2076,-0.2097,-0.2095,-0.2092,-0.2141,-0.2094,-0.2139,-0.2175,-0.2162,-0.2167,-0.2172,-0.2131,-0.2131,-0.2139,-0.2139,-0.2139,0,-0.1677,-0.1728,-0.1762,-0.1812,-0.1853,-0.1896,-0.1949,-0.1988,-0.2055,-0.2074,-0.2084,-0.2122,-0.2123,-0.2142,-0.2165,-0.216,-0.2134,-0.2147,-0.2173,-0.2177,-0.2179,-0.2136,-0.2135,-0.2143,-0.2143,-0.2142,-0.2142,0,-0.172,-0.1777,-0.1806,-0.1878,-0.1925,-0.198,-0.2033,-0.2081,-0.2121,-0.2147,-0.2191,-0.22,-0.2211,-0.222,-0.2214,-0.2233,-0.2202,-0.2191,-0.2153,-0.2192,-0.2143,-0.2141,-0.215,-0.2148,-0.2147,-0.2146,0,0,-0.169,-0.1813,-0.1825,-0.1876,-0.1968,-0.2007,-0.2076,-0.2136,-0.2171,-0.2224,-0.2258,-0.229,-0.2288,-0.2284,-0.2277,-0.2274,-0.2282,-0.2249,-0.2246,-0.2213,-0.2234,-0.2085,-0.2066,-0.2282,-0.2282,-0.2282,-0.219,0,-0.1716,-0.1814,-0.187,-0.1968,-0.2023,-0.2085,-0.214,-0.2197,-0.2236,-0.2276,-0.2284,-0.2313,-0.2312,-0.2322,-0.2324,-0.229,-0.2279,-0.2306,-0.2195,-0.2191,-0.2059,-0.206,-0.2283,-0.2188,-0.2187,-0.2186,-0.2186,0,-0.1726,-0.1797,-0.1896,-0.2013,-0.2043,-0.2105,-0.2188,-0.2245,-0.2296,-0.2322,-0.2347,-0.2349,-0.2357,-0.2352,-0.2311,-0.2329,-0.2291,-0.2262,-0.2258,-0.2081,-0.2036,-0.2139,-0.218,-0.218,-0.2181,-0.2181,-0.2182,0,-0.1666,-0.1807,-0.1887,-0.1931,-0.2066,-0.2119,-0.2186,-0.2256,-0.2293,-0.2345,-0.2356,-0.2372,-0.2358,-0.2339,-0.2281,-0.2302,-0.2214,-0.2227,-0.2053,-0.2041,-0.2165,-0.2161,-0.2195,-0.2195,-0.2196,-0.2196,-0.2196,0,-0.1646,-0.1713,-0.1873,-0.1917,-0.2004,-0.2106,-0.2181,-0.224,-0.2308,-0.231,-0.2371,-0.2341,-0.2357,-0.2306,-0.2275,-0.2129,-0.2201,-0.2043,-0.2005,-0.2204,-0.2206,-0.2162,-0.2159,-0.2192,-0.2193,-0.2194,-0.2194,0,-0.1555,-0.1667,-0.1766,-0.1928,-0.198,-0.2038,-0.2176,-0.2205,-0.2289,-0.2287,-0.2299,-0.231,-0.2222,-0.2209,-0.2141,-0.2076,-0.1989,-0.1924,-0.2112,-0.2089,-0.183,-0.1833,-0.1719,-0.1712,-0.1707,-0.1703,-0.1699,0,-0.1512,-0.1558,-0.1745,-0.1795,-0.1875,-0.1984,-0.2036,-0.217,-0.2178,-0.2223,-0.218,-0.2144,-0.212,-0.1892,-0.1919,-0.1828,-0.1815,-0.1771,-0.183,-0.1805,-0.178,-0.1792,-0.1802,-0.1691,-0.169,-0.1688,-0.1687,0,-0.1419,-0.1501,-0.158,-0.1686,-0.1769,-0.1842,-0.1922,-0.1916,-0.2011,-0.2118,-0.199,-0.1931,-0.1817,-0.1752,-0.1685,-0.1636,-0.1808,-0.1717,-0.1729,-0.1784,-0.1771,-0.1754,-0.177,-0.1669,-0.1672,-0.1673,-0.1674,0,-0.1337,-0.1367,-0.1474,-0.1546,-0.1639,-0.1641,-0.172,-0.1714,-0.1752,-0.1813,-0.1754,-0.1726,-0.1761,-0.1647,-0.1588,-0.1521,-0.1513,-0.1492,-0.1515,-0.1535,-0.1521,-0.1481,-0.1238,0,0,0,0,0,-0.1247,-0.1261,-0.1319,-0.1385,-0.1461,-0.1506,-0.1602,-0.1673,-0.1768,-0.1626,-0.169,-0.1579,-0.1476,-0.1478,-0.1366,-0.1507,-0.1522,-0.1375,-0.1513,-0.157,-0.1591,-0.1593,0,0,0,0,0,0,-0.1189,-0.1238,-0.1267,-0.1221,-0.1221,-0.1276,-0.1325,-0.1396,-0.1335,-0.1438,-0.1381,-0.1484,-0.14,-0.1488,-0.1325,-0.1328,-0.1385,-0.1396,-0.1392,-0.1558,-0.1577,-0.1594,-0.1603,0,0,0,0,0]},{"header":{"parameterUnit":"m.s-1","parameterCategory":2,"la1":30.2991,"la2":30.254,"lo1":-89.0895,"lo2":-89.0444,"dy":0.0017,"dx":0.0017,"nx":28,"ny":28,"refTime":"2025-05-14T21:00:00:Z","depth":"4","parameterNumber":3,"parameterNumberName":"V-component_of_CURRENTS"},"data":[0,0,0,0,0,0,0,0,0,0,0,0,0,0,0,0,0,0,0,0,0,0,0,0,0,0,0,0,0,0,0,0,0,0,0,0,0,0,0,0,0,0,0,0,0,0,0,0,0,0,0,0,0,0,0,0,0,0,-0.0285,-0.0285,0,-0.0217,-0.0217,-0.0216,-0.0169,-0.0169,-0.0169,-0.0168,-0.0115,-0.0113,-0.0112,0,0,0,0,0,0,0,0,0,0,0,0,0,-0.0315,-0.0315,-0.0286,-0.0285,-0.0284,-0.0218,-0.0216,-0.0215,-0.0169,-0.0169,-0.0169,-0.0168,-0.0115,-0.0114,-0.0112,0,0,0,0,0,0,0,0,0,0,0,0,0,-0.0279,-0.0315,-0.0286,-0.0254,-0.025,-0.0218,-0.0216,-0.0215,-0.0169,-0.0169,-0.0168,-0.0168,-0.0115,-0.0114,-0.0112,-0.0108,0,0,-0.0106,-0.0106,0,0,0,0,0,0,0,0,-0.0281,-0.0278,-0.0259,-0.0256,-0.0252,-0.0202,-0.0207,-0.018,-0.0169,-0.0199,-0.0168,-0.0168,-0.0146,-0.0142,-0.0128,-0.0105,-0.0103,-0.0106,-0.0105,-0.0104,-0.0104,0,0,0,0,0,0,0,-0.0284,-0.028,-0.0257,-0.0258,-0.0254,-0.0222,-0.0217,-0.0201,-0.0175,-0.0196,-0.0193,-0.0187,-0.0144,-0.013,-0.0127,-0.0102,-0.0106,-0.0105,-0.0104,-0.0103,-0.0059,-0.0059,0,0,0,0,0,0,-0.0298,-0.0283,-0.026,-0.0256,-0.0267,-0.0222,-0.0216,-0.0218,-0.0175,-0.0168,-0.0188,-0.0185,-0.0133,-0.0129,-0.0125,-0.009,-0.0104,-0.0103,-0.0102,-0.0059,-0.0059,-0.0059,0,0,0,0,0,0,-0.0299,-0.0297,-0.0262,-0.0268,-0.0262,-0.0223,-0.0224,-0.0217,-0.0203,-0.0168,-0.0161,-0.0182,-0.0133,-0.0127,-0.0095,-0.0089,-0.0102,-0.01,-0.006,-0.0059,-0.0059,-0.0038,0,0,0,0,0,0,-0.0301,-0.0298,-0.0305,-0.027,-0.0262,-0.0246,-0.0224,-0.0216,-0.02,-0.0197,-0.0161,-0.0155,-0.0132,-0.0097,-0.0093,-0.0086,-0.0099,-0.006,-0.0059,-0.0059,-0.0039,-0.0037,-0.0036,0,0,0,0,0,-0.0302,-0.0314,-0.0306,-0.0303,-0.0273,-0.0246,-0.0239,-0.0209,-0.0201,-0.0195,-0.0159,-0.0157,-0.0094,-0.0095,-0.009,-0.0083,-0.006,-0.006,-0.0059,-0.004,-0.0038,-0.0036,0,0,0,0,0,0,-0.033,-0.0309,-0.03,-0.0305,-0.0279,-0.0239,-0.0234,-0.0214,-0.0182,-0.0181,-0.0146,-0.0137,-0.0106,-0.0103,-0.0105,-0.0073,-0.0081,-0.008,-0.0068,-0.0066,-0.0065,-0.0076,-0.0097,0,0,0,0,0,-0.0341,-0.0346,-0.0315,-0.0319,-0.031,-0.0274,-0.0261,-0.0241,-0.0208,-0.0193,-0.0165,-0.0138,-0.0102,-0.0091,-0.0065,-0.0048,-0.0034,-0.0045,-0.0044,-0.0042,-0.0049,0.0006,0.0012,-0.0059,-0.0059,-0.0059,0,0,-0.0353,-0.0343,-0.0346,-0.0326,-0.0305,-0.029,-0.0265,-0.025,-0.023,-0.0194,-0.0163,-0.0128,-0.0095,-0.0063,-0.0052,-0.006,-0.0019,-0.0042,-0.0041,-0.0049,0.0007,0.0014,0.002,-0.0059,-0.0059,-0.0059,0,0,-0.0381,-0.0372,-0.0384,-0.0363,-0.0338,-0.031,-0.0309,-0.027,-0.0245,-0.0213,-0.0172,-0.0128,-0.0099,-0.0053,-0.0032,-0.0013,-0.0007,-0.0021,-0.0025,0.003,0.0036,0.0043,0.0056,0.0064,-0.0026,-0.0026,-0.0026,0,-0.0397,-0.0406,-0.0381,-0.038,-0.0364,-0.0322,-0.0319,-0.0285,-0.0237,-0.0213,-0.0208,-0.0122,-0.009,-0.0027,-0.0016,-0.0007,0.0006,-0.0029,0.0034,0.004,0.0046,0.0059,0.0067,-0.0025,-0.0025,-0.0025,-0.0025,0,-0.0425,-0.0429,-0.0432,-0.0415,-0.0392,-0.0384,-0.0334,-0.0307,-0.0277,-0.0238,-0.0177,-0.0117,-0.007,-0.0049,-0.0025,0.0032,0.0021,0.0038,0.0033,0.0055,0.0066,0.0074,-0.0024,-0.0024,-0.0024,-0.0024,0,0,-0.0471,-0.0458,-0.0459,-0.0458,-0.0411,-0.0398,-0.0357,-0.0308,-0.0282,-0.0227,-0.0188,-0.0105,-0.0075,-0.0049,-0.0005,0.0044,0.0104,0.005,0.0053,0.0069,0.0193,0.0134,0.0137,0.0135,0.0137,0.0138,0.0179,0,-0.05,-0.0521,-0.0491,-0.0491,-0.0492,-0.0431,-0.0396,-0.0341,-0.029,-0.0241,-0.0161,-0.0113,-0.0074,-0.0052,0.0011,0.008,0.0126,0.0089,0.0163,0.0164,0.0116,0.0145,0.0144,0.0185,0.0187,0.0188,0.0189,0,-0.0532,-0.0543,-0.0562,-0.0533,-0.0525,-0.0514,-0.0452,-0.0414,-0.0322,-0.0281,-0.0209,-0.0151,-0.0065,-0.004,0.0092,0.0062,0.0123,0.0177,0.018,0.0122,0.0121,0.0161,0.0203,0.0202,0.0201,0.02,0.0199,0,-0.0585,-0.0583,-0.0607,-0.0599,-0.056,-0.0551,-0.0521,-0.0437,-0.0402,-0.0314,-0.0286,-0.0171,-0.0128,-0.002,0.0076,0.009,0.0202,0.024,0.0246,0.0241,0.0272,0.0265,0.0336,0.0336,0.0336,0.0335,0.0335,0,-0.0621,-0.0637,-0.0645,-0.0657,-0.0675,-0.0616,-0.0607,-0.0552,-0.0473,-0.0439,-0.0325,-0.0285,-0.012,-0.0039,0.0062,0.0154,0.0192,0.0243,0.0256,0.0276,0.0269,0.0277,0.0269,0.0337,0.0337,0.0336,0.0336,0,-0.0666,-0.0673,-0.0705,-0.0702,-0.0707,-0.072,-0.0684,-0.0666,-0.0582,-0.0537,-0.0515,-0.037,-0.0262,-0.0121,0.0042,0.0115,0.0222,0.0245,0.0215,0.0225,0.0231,0.0224,0.0277,0.0276,0.0274,0.0273,0.0272,0,-0.0686,-0.0715,-0.0763,-0.0798,-0.0807,-0.0819,-0.0822,-0.0741,-0.0713,-0.0597,-0.0582,-0.0464,-0.0366,-0.0193,-0.0035,0.014,0.0172,0.0218,0.0274,0.0222,0.0229,0.0224,0.0219,0.027,0.027,0.027,0.0269,0,-0.0722,-0.0754,-0.0787,-0.0874,-0.0911,-0.0933,-0.0928,-0.0917,-0.0814,-0.0744,-0.0641,-0.0514,-0.0397,-0.0223,-0.0104,0.0032,0.019,0.0205,0.0211,0.0264,0.0214,0.0222,0.0218,0.0265,0.0265,0.0266,0.0266,0,-0.0749,-0.0794,-0.0858,-0.0922,-0.0987,-0.1024,-0.1015,-0.097,-0.0922,-0.0773,-0.0757,-0.0586,-0.0469,-0.0282,-0.0171,-0.0051,0.0011,0.0067,0.0081,0.0088,0.0026,-0.0066,-0.0091,0,0,0,0,0,-0.076,-0.0816,-0.0894,-0.0966,-0.1035,-0.106,-0.1067,-0.1035,-0.0952,-0.0894,-0.0809,-0.0694,-0.048,-0.0376,-0.0266,-0.0195,0.0016,-0.0062,0.0082,0.024,0.0245,0.02,0,0,0,0,0,0,-0.077,-0.0851,-0.0896,-0.0988,-0.1039,-0.1096,-0.1105,-0.1054,-0.1,-0.0903,-0.0795,-0.0673,-0.0476,-0.0547,-0.0265,-0.0223,-0.0119,0.0059,0.0062,0.0237,0.0241,0.0246,0.0201,0,0,0,0,0]}]]